Tracking 20942 objects as of 10-Jul-2020
HD Live streaming from Space Station
objects crossing your sky now

SL-24 R/B

Track SL-24 R/B now!
10-day predictions


NORAD ID: 31699
Int'l Code: 2007-026B
Perigee: 512.8 km
Apogee: 1,009.4 km
Inclination: 97.4 °
Period: 99.9 minutes
Semi major axis: 7132 km
RCS: 6.666 m2 (large)
Launch date: June 15, 2007
Source: Commonwealth of Independent States (former USSR) (CIS)
Launch site: TYURATAM MISSILE AND SPACE COMPLEX (TTMTR)

Note: This is a ROCKET BODY
aabbcc
Your satellite tracking list
Your tracking list is empty




NASA's NSSDC Master Catalog

Two Line Element Set (TLE):
1 31699U 07026B   20192.54363383 +.00000005 +00000-0 +93304-5 0  9991
2 31699 097.4416 033.0459 0348157 236.8364 175.7229 14.41369516686907
Source of the keplerian elements: AFSPC